Home > Weather > Fort Myers > Past weeks

Flag for U.S.A. Weather for the Past 2 Weeks in Fort Myers, Florida, U.S.A.

Now
69 °F

Passing clouds.


Feels Like: 69 °F
Forecast: 54 / 73 °F
Wind: 10 mph from Northeast

Location: Page Field

Current Time: Feb 13, 2016 at 11:33:49 AM

Latest Report: Feb 13, 2016 at 10:53 AM


Visibility: 10 mi

Pressure: 30.27 "Hg

Humidity: 70%

Dew point: 59 °F

Location of Fort MyersLocation

Historic Weather in Fort Myers — Graph

°F

Fort Myers Temperature Yesterday

Maximum temperature yesterday: 72 °F (at 12:53 PM)
Minimum temperature yesterday: 47 °F (at 5:53 AM)
Average temperature yesterday: 59 °F

High & Low Weather Summary for the Past Weeks

 TemperatureHumidityPressure
High84 °F (Feb 3, 2:53 PM)100% (Feb 2, 2:53 AM)30.35 "Hg (Feb 2, 2:53 AM)
Low43 °F (Feb 8, 6:53 AM)24% (Feb 5, 12:53 PM)29.94 "Hg (Feb 9, 12:53 AM)
Average62 °F73%30.12 "Hg
* Reported Jan 29 9:53 AM — Feb 13 9:53 AM, Fort Myers, Weather by CustomWeather, © 2016

Note: Actual official high and low records may vary slightly from our data, if they occured in-between our weather recording intervals... More about our weather records

Advertising

Fort Myers Weather History for the Previous 24 Hours

 ConditionsComfort  
Time TempWeatherWind HumidityBarometerVisibility
9:53 AM
Sat, Feb 13
68 °FPassing clouds.12 mph73%30.26 "Hg10 mi
8:53 AM64 °FSunny.No wind84%30.25 "Hg10 mi
7:53 AM55 °FSunny.No wind93%30.24 "Hg10 mi
6:53 AM52 °FPassing clouds.No wind97%30.23 "Hg10 mi
5:53 AM52 °FClear.No wind93%30.20 "Hg10 mi
4:53 AM51 °FClear.No wind92%30.19 "Hg10 mi
3:53 AM52 °FClear.No wind97%30.19 "Hg10 mi
2:53 AM53 °FClear.No wind93%30.20 "Hg10 mi
1:53 AM53 °FClear.No wind93%30.21 "Hg10 mi
12:53 AM53 °FClear.No wind93%30.22 "Hg10 mi
11:53 PM
Fri, Feb 12
54 °FClear.No wind90%30.23 "Hg10 mi
10:53 PM56 °FClear.No wind84%30.24 "Hg10 mi
9:53 PM58 °FClear.No wind75%30.24 "Hg10 mi
8:53 PM58 °FClear.3 mph72%30.24 "Hg10 mi
7:53 PM60 °FClear.6 mph58%30.24 "Hg10 mi
6:53 PM63 °FClear.7 mph48%30.23 "Hg10 mi
5:53 PM67 °FSunny.12 mph33%30.23 "Hg10 mi
4:53 PM70 °FSunny.12 mph30%30.22 "Hg10 mi
3:53 PM71 °FSunny.12 mph31%30.21 "Hg10 mi
2:53 PM72 °FSunny.10 mph34%30.22 "Hg10 mi
1:53 PM72 °FSunny.N/A29%30.24 "Hg10 mi
12:53 PM72 °FSunny.7 mph31%30.29 "Hg10 mi
11:53 AM71 °FSunny.No wind31%30.30 "Hg10 mi
Weather by CustomWeather, © 2016

See weather overviewHow to use our weather pages